Weather History for Boone, IA

Change the Weather History Date:

Wednesday, November 9, 2011

  Actual Average Record
Temperature  
Mean Temperature 41 °F -  
Max Temperature 50 °F 47 °F 77 °F (1999)
Min Temperature 32 °F 27 °F 3 °F (1991)
Degree Days  
Heating Degree Days 24    
Moisture  
Dew Point 28 °F    
Average Humidity 67    
Maximum Humidity 100    
Minimum Humidity 34    
Precipitation  
Precipitation 0.33 in - - ()
Sea Level Pressure  
Sea Level Pressure 30.06 in    
Wind  
Wind Speed 15 mph (NW)    
Max Wind Speed 24 mph    
Max Gust Speed 33 mph    
Visibility 8 miles    
Events Rain , Snow    
Averages and records for this station are not official NWS values.
T = Trace of Precipitation, MM = Missing Value Source: NWS Daily Summary

Daily Weather History Graph

Daily Weather History Graph

Search for Another Location

Airport:

Trip Planner

Search our weather history database for the weather conditions in past years. The results will help you decide how hot, cold, wet, or windy it might be!

Date:

Astronomy

Nov. 09, 2011 Rise Set
Actual Time 6:57 AM CST 5:00 PM CST
Civil Twilight 6:28 AM CST 5:29 PM CST
Nautical Twilight 5:54 AM CST 6:03 PM CST
Astronomical Twilight 5:21 AM CST 6:35 PM CST
Moon 4:12 PM CST (11/9) 5:53 AM CST (11/9)
Length of Visible Light 11h 01m
Length of Day
10h 02m
Waxing Gibbous, 99% of the Moon is Illuminated
Nov 9
Waxing Gibbous
Nov 10
Full
Nov 18
Last Quarter
Nov 25
New
Dec 2
First Quarter

Hourly Weather History & Observations

Time (CST) Temp. Windchill Dew Point Humidity Pressure Visibility Wind Dir Wind Speed Gust Speed Precip Events Conditions
12:15 AM 35.6 °F 26.2 °F 33.8 °F 93% 30.03 in 5.0 mi North 15.0 mph 19.6 mph 0.02 in Rain Rain
12:35 AM 35.6 °F 25.2 °F 33.8 °F 93% 29.99 in 5.0 mi North 18.4 mph 23.0 mph 0.05 in Rain Rain
12:55 AM 33.8 °F 22.5 °F 33.8 °F 100% 30.01 in 5.0 mi North 19.6 mph 27.6 mph 0.08 in Rain Rain
1:15 AM 33.8 °F 22.8 °F 32.0 °F 93% 30.01 in 4.0 mi North 18.4 mph - 0.03 in Snow Light Snow
1:35 AM 33.8 °F 23.9 °F 32.0 °F 93% 30.00 in 4.0 mi North 15.0 mph 21.9 mph 0.06 in Snow Light Snow
1:55 AM 32.0 °F 20.8 °F 32.0 °F 100% 30.01 in 2.0 mi North 17.3 mph 20.7 mph 0.09 in Snow Light Snow
2:15 AM 32.0 °F 23.6 °F 32.0 °F 100% 30.01 in 2.0 mi North 10.4 mph - 0.01 in Snow Light Snow
2:35 AM 32.0 °F 23.6 °F 32.0 °F 100% 30.01 in 1.2 mi North 10.4 mph - 0.03 in Snow Light Snow
2:55 AM 32.0 °F 22.5 °F 32.0 °F 100% 30.02 in 1.2 mi North 12.7 mph - 0.04 in Snow Light Snow
3:15 AM 32.0 °F 23.0 °F 32.0 °F 100% 30.02 in 2.5 mi North 11.5 mph 18.4 mph 0.02 in Snow Light Snow
3:35 AM 32.0 °F 23.6 °F 32.0 °F 100% 30.02 in 2.0 mi NNW 10.4 mph - 0.05 in Snow Light Snow
3:55 AM 32.0 °F 23.0 °F 32.0 °F 100% 30.03 in 1.8 mi NNW 11.5 mph - 0.06 in Snow Light Snow
4:15 AM 32.0 °F 22.5 °F 32.0 °F 100% 30.02 in 3.0 mi North 12.7 mph - 0.03 in Snow Light Snow
4:35 AM 33.8 °F 24.3 °F 32.0 °F 93% 30.01 in 7.0 mi North 13.8 mph - 0.06 in Rain Light Rain
4:55 AM 33.8 °F 26.4 °F 32.0 °F 93% 30.01 in 10.0 mi North 9.2 mph 17.3 mph 0.06 in   Overcast
5:15 AM 33.8 °F 27.7 °F 32.0 °F 93% 30.02 in 10.0 mi North 6.9 mph - N/A   Overcast
5:35 AM 33.8 °F 28.6 °F 32.0 °F 93% 30.01 in 10.0 mi NW 5.8 mph - N/A   Overcast
6:15 AM 33.8 °F 24.3 °F 30.2 °F 87% 30.00 in 10.0 mi NW 13.8 mph 18.4 mph N/A   Mostly Cloudy
6:35 AM 35.6 °F 26.2 °F 30.2 °F 81% 30.01 in 10.0 mi NNW 15.0 mph - N/A   Clear
6:55 AM 35.6 °F 26.2 °F 28.4 °F 75% 30.01 in 10.0 mi NW 15.0 mph 20.7 mph N/A   Scattered Clouds
7:15 AM 35.6 °F 26.2 °F 28.4 °F 75% 30.02 in 10.0 mi NW 15.0 mph 20.7 mph N/A   Scattered Clouds
7:35 AM 35.6 °F 26.2 °F 28.4 °F 75% 30.03 in 10.0 mi NW 15.0 mph - N/A   Clear
7:55 AM 35.6 °F 26.2 °F 28.4 °F 75% 30.04 in 10.0 mi NW 15.0 mph 20.7 mph N/A   Clear
8:15 AM 35.6 °F 25.9 °F 28.4 °F 75% 30.05 in 10.0 mi NW 16.1 mph - N/A   Clear
8:35 AM 37.4 °F 28.9 °F 28.4 °F 70% 30.05 in 10.0 mi NW 13.8 mph - N/A   Clear
8:55 AM 37.4 °F 28.9 °F 28.4 °F 70% 30.05 in 10.0 mi NW 13.8 mph - N/A   Clear
9:15 AM 37.4 °F 29.3 °F 28.4 °F 70% 30.07 in 10.0 mi NW 12.7 mph 18.4 mph N/A   Clear
9:35 AM 39.2 °F 32.5 °F 30.2 °F 70% 30.08 in 10.0 mi WNW 10.4 mph - N/A   Clear
9:55 AM 41.0 °F 34.3 °F 30.2 °F 65% 30.07 in 10.0 mi WNW 11.5 mph 18.4 mph N/A   Clear
10:35 AM 42.8 °F 35.8 °F 30.2 °F 61% 30.08 in 10.0 mi NW 13.8 mph 21.9 mph N/A   Clear
10:55 AM 42.8 °F 36.2 °F 30.2 °F 61% 30.08 in 10.0 mi WNW 12.7 mph 19.6 mph N/A   Clear
11:15 AM 44.6 °F 37.4 °F 30.2 °F 57% 30.08 in 10.0 mi WNW 16.1 mph 24.2 mph N/A   Clear
11:35 AM 44.6 °F 36.9 °F 28.4 °F 53% 30.07 in 10.0 mi NW 18.4 mph 21.9 mph N/A   Clear
11:55 AM 46.4 °F 40.1 °F 28.4 °F 50% 30.07 in 10.0 mi WNW 15.0 mph 23.0 mph N/A   Clear
12:15 PM 46.4 °F 39.8 °F 30.2 °F 53% 30.06 in 10.0 mi WNW 16.1 mph 24.2 mph N/A   Clear
12:35 PM 46.4 °F 40.4 °F 30.2 °F 53% 30.06 in 10.0 mi WNW 13.8 mph 26.5 mph N/A   Clear
12:55 PM 48.2 °F - 28.4 °F 46% 30.06 in 10.0 mi NW 15.0 mph 24.2 mph N/A   Clear
1:15 PM 50.0 °F - 28.4 °F 43% 30.06 in 10.0 mi WNW 19.6 mph 28.8 mph N/A   Clear
1:35 PM 48.2 °F - 26.6 °F 43% 30.05 in 10.0 mi WNW 24.2 mph 32.2 mph N/A   Clear
1:55 PM 50.0 °F - 26.6 °F 40% 30.06 in 10.0 mi WNW 21.9 mph 32.2 mph N/A   Clear
2:15 PM 50.0 °F - 24.8 °F 37% 30.06 in 10.0 mi NW 20.7 mph 31.1 mph N/A   Clear
2:35 PM 50.0 °F - 23.0 °F 35% 30.06 in 10.0 mi WNW 20.7 mph 29.9 mph N/A   Clear
2:55 PM 48.2 °F - 23.0 °F 37% 30.07 in 10.0 mi WNW 20.7 mph 29.9 mph N/A   Clear
3:15 PM 48.2 °F - 21.2 °F 34% 30.07 in 10.0 mi NW 16.1 mph 28.8 mph N/A   Clear
3:35 PM 48.2 °F - 23.0 °F 37% 30.08 in 10.0 mi NW 15.0 mph 25.3 mph N/A   Clear
3:55 PM 46.4 °F 39.2 °F 26.6 °F 46% 30.08 in 10.0 mi WNW 18.4 mph 33.4 mph N/A   Clear
4:15 PM 44.6 °F 35.9 °F 26.6 °F 49% 30.09 in 10.0 mi WNW 23.0 mph 28.8 mph N/A   Clear
4:35 PM 44.6 °F 37.4 °F 24.8 °F 46% 30.10 in 10.0 mi WNW 16.1 mph 26.5 mph N/A   Clear
5:15 PM 42.8 °F 35.1 °F 23.0 °F 46% 30.11 in 10.0 mi WNW 16.1 mph 21.9 mph N/A   Clear
5:35 PM 41.0 °F 33.1 °F 23.0 °F 49% 30.12 in 10.0 mi WNW 15.0 mph 21.9 mph N/A   Clear
5:55 PM 41.0 °F 33.1 °F 23.0 °F 49% 30.12 in 10.0 mi WNW 15.0 mph 21.9 mph N/A   Clear
6:15 PM 41.0 °F 33.5 °F 23.0 °F 49% 30.13 in 10.0 mi WNW 13.8 mph - N/A   Clear
6:35 PM 39.2 °F 30.5 °F 21.2 °F 49% 30.13 in 10.0 mi WNW 16.1 mph 23.0 mph N/A   Clear
6:55 PM 39.2 °F 31.6 °F 21.2 °F 49% 30.13 in 10.0 mi WNW 12.7 mph 20.7 mph N/A   Clear
7:15 PM 37.4 °F 29.3 °F 19.4 °F 48% 30.13 in 10.0 mi WNW 12.7 mph 21.9 mph N/A   Clear
7:35 PM 37.4 °F 28.9 °F 21.2 °F 52% 30.13 in 10.0 mi West 13.8 mph - N/A   Clear
7:55 PM 35.6 °F 27.1 °F 21.2 °F 56% 30.13 in 10.0 mi West 12.7 mph - N/A   Clear
8:15 PM 35.6 °F 27.1 °F 21.2 °F 56% 30.13 in 10.0 mi West 12.7 mph 18.4 mph N/A   Clear
8:35 PM 35.6 °F 25.9 °F 19.4 °F 52% 30.13 in 10.0 mi West 16.1 mph 20.7 mph N/A   Clear
8:55 PM 35.6 °F 25.9 °F 19.4 °F 52% 30.14 in 10.0 mi WNW 16.1 mph 20.7 mph N/A   Clear
9:15 PM 35.6 °F 26.6 °F 19.4 °F 52% 30.14 in 10.0 mi WNW 13.8 mph 21.9 mph N/A   Clear
9:35 PM 35.6 °F 26.2 °F 21.2 °F 56% 30.14 in 10.0 mi WNW 15.0 mph - N/A   Clear
9:55 PM 35.6 °F 27.1 °F 21.2 °F 56% 30.14 in 10.0 mi WNW 12.7 mph 23.0 mph N/A   Clear
10:15 PM 35.6 °F 26.2 °F 21.2 °F 56% 30.13 in 10.0 mi WNW 15.0 mph - N/A   Clear
10:35 PM 33.8 °F 24.8 °F 21.2 °F 60% 30.13 in 10.0 mi West 12.7 mph - N/A   Clear
10:55 PM 33.8 °F 24.3 °F 21.2 °F 60% 30.13 in 10.0 mi WNW 13.8 mph 23.0 mph N/A   Clear
11:15 PM 33.8 °F 23.9 °F 21.2 °F 60% 30.13 in 10.0 mi WNW 15.0 mph 18.4 mph N/A   Clear
11:35 PM 33.8 °F 23.9 °F 21.2 °F 60% 30.13 in 10.0 mi West 15.0 mph 21.9 mph N/A   Clear
11:55 PM 32.0 °F 23.0 °F 21.2 °F 64% 30.13 in 10.0 mi West 11.5 mph 20.7 mph N/A   Clear